Regional Weather Roundup
Issued by NWS Kansas City/Pleasant Hill, MO

Home | Current Version | Previous Version | Text Only | Print | Product List | Glossary On
Versions: 1 2 3 4 5 6 7 8 9 10 11 12 13 14 15 16 17 18 19 20 21 22 23 24 25 26 27 28
000
ASUS43 KEAX 180310
RWREAX

WEATHER ROUNDUP FOR EASTERN KANSAS AND NORTHWEST MISSOURI
NATIONAL WEATHER SERVICE KANSAS CITY/PLEASANT HILL MO
900 PM CST FRI NOV 17 2017

KSZ040-057-103>105-MOZ028-029-037-043-180400-
...KANSAS CITY METROPOLITAN AREA...

CITY           SKY/WX    TMP DP  RH WIND       PRES   REMARKS
K.C. INTL      CLOUDY    59  58  96 S6        29.47F
K.C. DOWNTOWN  MOCLDY    62  58  86 CALM      29.47S
LEES SUMMIT    CLOUDY    63  61  93 S9        29.49S
OLATHE - IXD   CLOUDY    59  58  96 S6        29.48F
OLATHE - OJC   CLOUDY    59  59 100 CALM      29.48S
LAWRENCE       CLOUDY    56  55  97 E5        29.46F

$$

MOZ001>008-011>017-020>025-030>033-038>040-044>046-053-054-180400-
...NORTHERN AND CENTRAL MISSOURI...

CITY           SKY/WX    TMP DP  RH WIND       PRES   REMARKS
ST. JOSEPH     FOG       49  49 100 N5        29.48R VSB 3/4
MOSBY          CLOUDY    54  54 100 CALM      29.47F FOG
WARRENSBURG    CLOUDY    61  55  82 S7        29.49F
WHITEMAN AFB   CLEAR     62  58  87 S9        29.46F
CLINTON        PTCLDY    64  61  88 MISG      29.51F
SEDALIA        PTCLDY    65  61  87 S12       29.52S
WARSAW         NOT AVBL
CHILLICOTHE      N/A     59  56  89 SE5       29.50F
KIRKSVILLE     CLOUDY    56  55  97 SE7       29.52F

$$

MOZ041-047>049-056>058-063>065-088>090-097-180400-
...EASTERN AND SOUTHERN MISSOURI...

CITY           SKY/WX    TMP DP  RH WIND       PRES   REMARKS
ST. LOUIS INTL MOCLDY    57  51  80 SE8       29.62F
SPIRIT OF STL  MOCLDY    61  56  83 S12G18    29.60F
COLUMBIA       PTCLDY    62  58  86 S13       29.54F
JEFFERSON CITY MOCLDY    66  58  75 S8        29.54F
ROLLA          CLEAR     63  59  87 S18G25    29.60F
OSAGE BEACH    MOCLDY    65  60  84 S10       29.56F
SPRINGFIELD    PTCLDY    65  61  87 S18       29.59F
BRANSON        PTCLDY    68  59  73 S9G20     29.65S
JOPLIN         PTCLDY    71  63  75 S21G33    29.55S
WEST PLAINS    CLOUDY    66  61  84 S12G21    29.68S

$$

IAZ060-094-KSZ022-034>040-054-083-096-NEZ052-066-093-180400-
...KANSAS...SOUTHEAST NEBRASKA AND IOWA...

CITY           SKY/WX    TMP DP  RH WIND       PRES   REMARKS
TOPEKA         CLOUDY    56  55  97 CALM      29.45F
MANHATTAN      PTCLDY    49  44  83 CALM      29.45F
EMPORIA        CLOUDY    64  51  62 S12       29.45F
CHANUTE        CLOUDY    71  60  68 S15       29.49F
WICHITA        CLOUDY    67  51  56 S13       29.42F
OMAHA          MOCLDY    48  39  71 N10       29.54F
LINCOLN        CLOUDY    49  38  65 N15       29.57S
FALLS CITY     CLOUDY    56  55  97 N6        29.49R FOG
LAMONI         FOG       54  54 100 CALM      29.52S VSB 1/4
DES MOINES     DRIZZLE   49  48  97 N7        29.55F FOG

$$





USA.gov is the U.S. government's official web portal to all federal, state and local government web resources and services.